Troutdale, OR

7:58 AM PDT on September 30, 2016 (GMT -0700)
Portland-Troutdale

Weather History for KTTD - October, 2013

Change the Weather History Date:

Tuesday, October 15, 2013

  Actual Average Record
Temperature  
Mean Temperature 54 °F 54 °F  
Max Temperature 67 °F 64 °F 80 °F (1991)
Min Temperature 40 °F 44 °F 33 °F (1992)
Degree Days  
Heating Degree Days 11 11  
Month to date heating degree days 175 133  
Cooling Degree Days 0 0  
Month to date cooling degree days 0 0  
Growing Degree Days 4 (Base 50)    
Moisture  
Dew Point 40 °F    
Average Humidity 65    
Maximum Humidity 93    
Minimum Humidity 37    
Precipitation  
Precipitation 0.00 in 0.11 in 1.08 in (1996)
Month to date precipitation 1.32 1.42  
Year to date precipitation 22.24 29.99  
Snow  
Snow 0.00 in - - ()
Month to date snowfall 0.0  
Snow Depth 0.00 in    
Sea Level Pressure  
Sea Level Pressure 30.24 in    
Wind  
Wind Speed 8 mph (East)    
Max Wind Speed 21 mph    
Max Gust Speed 26 mph    
Visibility 10 miles    
Events      
T = Trace of Precipitation, MM = Missing Value Source: NWS Daily Summary

Daily Weather History Graph

Daily Weather History Graph

Search for Another Location

Airport or City:

Trip Planner

Search our weather history database for the weather conditions in past years. The results will help you decide how hot, cold, wet, or windy it might be!

Date:

Astronomy

Oct. 15, 2013 Rise Set
Actual Time 7:26 AM PDT 6:23 PM PDT
Civil Twilight 6:56 AM PDT 6:53 PM PDT
Nautical Twilight 6:22 AM PDT 7:27 PM PDT
Astronomical Twilight 5:47 AM PDT 8:01 PM PDT
Moon 4:39 PM PDT (10/15) 3:45 AM PDT (10/15)
Length of Visible Light 11h 56m
Length of Day
10h 56m
Waxing Gibbous, 88% of the Moon is Illuminated
Oct 15
Waxing Gibbous
Oct 18
Full
Oct 26
Last Quarter
Nov 3
New
Nov 9
First Quarter

Hourly Weather History & Observations

Time (PDT) Temp. Windchill Dew Point Humidity Pressure Visibility Wind Dir Wind Speed Gust Speed Precip Events Conditions
12:53 AM 50.0 °F - 42.1 °F 74% 30.34 in 10.0 mi ENE 4.6 mph - N/A   Clear
1:53 AM 48.0 °F - 42.1 °F 80% 30.34 in 10.0 mi NNE 3.5 mph - N/A   Clear
2:53 AM 46.0 °F - 42.1 °F 86% 30.33 in 10.0 mi Calm Calm - N/A   Clear
3:53 AM 46.9 °F - 41.0 °F 80% 30.32 in 10.0 mi Calm Calm - N/A   Clear
4:53 AM 43.0 °F - 39.0 °F 86% 30.32 in 10.0 mi Calm Calm - N/A   Clear
5:53 AM 41.0 °F - 39.0 °F 93% 30.31 in 8.0 mi Calm Calm - N/A   Clear
6:53 AM 46.0 °F 43.1 °F 39.0 °F 76% 30.31 in 10.0 mi ENE 5.8 mph - N/A   Clear
7:53 AM 48.9 °F - 37.9 °F 66% 30.31 in 10.0 mi East 10.4 mph - N/A   Clear
8:53 AM 51.1 °F - 37.9 °F 61% 30.31 in 10.0 mi East 16.1 mph 24.2 mph N/A   Clear
9:53 AM 54.0 °F - 37.9 °F 55% 30.30 in 10.0 mi East 19.6 mph - N/A   Clear
10:53 AM 57.9 °F - 37.9 °F 47% 30.28 in 10.0 mi East 16.1 mph 24.2 mph N/A   Clear
11:53 AM 61.0 °F - 39.0 °F 44% 30.26 in 10.0 mi East 15.0 mph 23.0 mph N/A   Clear
12:53 PM 63.0 °F - 39.0 °F 41% 30.24 in 10.0 mi East 19.6 mph 24.2 mph N/A   Clear
1:53 PM 64.9 °F - 39.0 °F 39% 30.20 in 10.0 mi East 18.4 mph - N/A   Clear
2:53 PM 64.9 °F - 39.0 °F 39% 30.18 in 10.0 mi East 17.3 mph 23.0 mph N/A   Clear
3:53 PM 66.0 °F - 39.0 °F 37% 30.17 in 10.0 mi East 15.0 mph - N/A   Clear
4:53 PM 64.9 °F - 39.0 °F 39% 30.16 in 10.0 mi East 10.4 mph - N/A   Clear
5:53 PM 61.0 °F - 39.9 °F 46% 30.15 in 10.0 mi East 9.2 mph - N/A   Clear
6:53 PM 59.0 °F - 39.9 °F 49% 30.14 in 10.0 mi East 8.1 mph - N/A   Clear
7:53 PM 57.9 °F - 39.9 °F 51% 30.13 in 10.0 mi East 5.8 mph - N/A   Clear
8:53 PM 51.1 °F - 41.0 °F 68% 30.14 in 10.0 mi Calm Calm - N/A   Clear
9:53 PM 46.9 °F - 41.0 °F 80% 30.14 in 10.0 mi NNW 3.5 mph - N/A   Clear
10:53 PM 46.9 °F - 42.1 °F 83% 30.14 in 10.0 mi Calm Calm - N/A   Clear
11:53 PM 46.9 °F - 42.1 °F 83% 30.14 in 10.0 mi Calm Calm - N/A   Clear